Погода Сумы

Хотите узнать прогноз погоды Сумы? Тогда Вам сюда: Погода Сумы

Поиск расширенной информации на нашем сайте:

Полезная информация:

Новости сайта



02.01.2020
Опубликован Долгосрочный прогноз погоды по городам России и ближнего зарубежья на январь 2020 года.
Карты: Прогноз на январь и февраль 2020 года, Сравнение прогнозируемой аномалии приземной температуры воздуха на январь 2020 года по разным моделям.




Погода Сумы - сегодня

Время (UTC), дата Ветер
(°,м/с) 
Видим.   Явления Облачность Т
(°С)
Тd
(°С)
f(%) Тe
(°С)
Pmin
(гПа)
dP
(гПа)
Po
(мм)
O2
(г/м3)
Тmin Tmax R s Состояние
почвы
18 24.01.20 250 (З) 4000 м  дымка  10/10 210 м 
[St]
-0.2 -1.1 94 -3  1014.7  -0.9  744  300    +0.2  0.0     
21 24.01.20 260 (З) 4000 м  в посл. час морось  10/10 240 м 
[St]
+0.4 -0.4 94 -3  1012.7  -1.9  743  299           
00 25.01.20 260 (З) 4000 м  слаб. дождь{морось}  10/9 180 м средняя 
[Frnb|As op]
+0.6 +0.1 96 -2  1011.6  -1.1  742  298      0.5     
03 25.01.20 270 (З) 4000 м  слаб. дождь  10/9 150 м средняя 
[Frnb|As op]
+0.4 -0.2 96 -2  1010.8  -0.8  741  298           
06 25.01.20 260 (З) 2000 м  слаб. снег{дождь}  10/9 120 м средняя 
[Frnb|As op]
-0.2 -0.8 96 -3  1011  0.2  741  299  -0.2    <0.5  равномерный
сухой снег
100% 
09 25.01.20 270 (З) 4000 м  дымка{снег}  10/10 180 м 
[St]
+0.4 -0.4 94 -2  1011.7  0.7  742  298           
12 25.01.20 270 (З) 4000 м  дымка{снег}  10/10 180 м 
[St]
+1 -0.1 92 -2  1011.1  -0.5  741  298      0.3     
15 25.01.20 270 (З) 4000 м  дымка  10/10 240 м 
[St]
+1.2 +0.1 92 -2  1011.1  741  297           
18 25.01.20 260 (З) 10 км    10/10 360 м 
[St]
+1.3 -0.1 90 -2  1011.9  0.8  742  298    +1.3  0.3     
21 25.01.20 280 (З) 10 км    10/10 450 м 
[Sc]
+1.2 -0.2 90 -2  1013.1  1.1  743  298           
00 26.01.20 290 (З) 10 км    8/0 средняя 
[Ac trans]
+0.9 -0.8 88 -2  1014.6  1.5  744  299           
03 26.01.20 290 (З) 10 км    8/0 средняя 
[Ac trans]
+0.9 -1.4 85 -2  1016.3  1.6  745  299           
06 26.01.20 290 (З) 10 км    6/0 средняя 
[Ac trans]
+0.2 -1.8 86 -2  1018.5  2.1  747  301  +0.2         
09 26.01.20 300 (СЗ) 10 км    6/6 660 м 
[Sc]
+1.9 -1.2 80 1020.5  2.1  748  300           
12 26.01.20 290 (З) 10 км    8/8 800 м 
[Sc]
+2.1 -3.6 66 1020.9  0.4  749  300           
15 26.01.20 280 (З) 10 км    10/10 700 м 
[Sc]
+1.4 -2.7 74 1021.1  0.2  749  300           
18 26.01.20 260 (З) 10 км    10/10 720 м 
[Sc]
+1.3 -3.2 72 -1  1021  -0.1  749  301    +3.1       
21 26.01.20 260 (З) 10 км    10/10 800 м 
[Sc]
+1.3 -2.8 74 -1  1020.5  -0.5  748  300           
00 27.01.20 250 (З) 10 км    10/10 800 м 
[Sc]
+1 -2.5 77 -1  1019.6  0.9  748  300           
03 27.01.20 250 (З) 10 км    10/10 700 м 
[Sc]
+0.9 -2.6 77 -1  1018.7  -0.9  747  300           
06 27.01.20 250 (З) 10 км    10/10 480 м 
[Sc]
+0.5 -2.5 80 -1  1019.1  0.3  747  301  +0.5         
09 27.01.20 240 (ЮЗ) 10 км    10/10 270 м 
[St]
+0.3 -0.8 92 -1  1018.9  -0.2  747  301           
12 27.01.20 240 (ЮЗ) 10 км    10/10 300 м 
[St]
+0.8 -1.2 86 -1  1017.9  -0.9  746  300           
15 27.01.20 200 (Ю) 10 км    10/10 330 м 
[St]
+0.9 -1.1 86 -1  1017  -0.9  746  300           
18 27.01.20 210 (ЮЗ) 10 км    10/10 300 м 
[St]
+0.4 -1.3 88 -2  1016.7  -0.3  745  300    +1       
Время (UTC), дата Ветер
(°,м/с) 
Видим.   Явления Облачность Т
(°С)
Тd
(°С)
f(%) Тe
(°С)
Pmin
(гПа)
dP
(гПа)
Po
(мм)
O2
(г/м3)
Тmin Tmax R s Состояние
почвы

Для получения пояснительной информации подведите курсор к названию столбца.

ПОГОДА Сумы - архив

Всё, что Вы хотите узнать о погоде Сумы - удобно и подробно!

Выберите нужную дату (начиная с 1 января 2019* года) и нажмите кнопку "Найти".
Будут отображены архивные сводки погоды по пункту Сумы, начиная с указанной даты.


Отображать данные в формате CSV (для использования в таблицах Excel)


Внимание! Наш архив погоды предназначен исключительно для личного некоммерческого использования в познавательных целях. Если Вам необходимы официальные справки о состоянии погоды (для производственных, юридических, коммерческих и т.п. целей), обращайтесь в органы Росгидромета.

*Примечание: данная дата относится к архиву по метеостанциям СССР (Россия, СНГ, Балтия).
Архив по метеостанциям Зарубежной Европы и Азии (кроме Китая) хранится 10 дней, по другим регионам земного шара (Китай, Африка, Америка, Австралия, Океания) - 1 день.

Сумы - район местоположения метеостанции


Название, широта, долгота, высота метеостанции:
Сумы 50.9°ш. 34.7°д. 181 м над ур. моря [Украина]

Дополнительная информация

В oтличие oт бoльшинства пoгoдных сайтoв мы публикуем пoдрoбную метеoинфoрмацию в детальнoм прoфессиoнальнoм фoрмате.

Характеристики температуры и влажнoсти вoздуха измеряются на высoте 2 м в тени вдали oт зданий и деревьев.
Скoрoсть ветра измеряется на высoте 10 м (на урoвне рoста челoвека скoрoсть ветра ниже в 1.5-2 раза). Если метеoстанция нахoдится в гoрoде или в лесу, тo скoрoсть ветра занижена на 2-4 м/с пo сравнению с oткрытым местoм. Скoрoсть ветра над акватoриями крупных рек и oзёр, а также на вершинах хoлмoв на 2-5 м/с выше, чем в oбычных услoвиях.
Атмoсфернoе давление в разных тoчках местнoсти мoжет значительнo oтличаться oт давления на метеoстанции, в зависимoсти oт услoвий рельефа (при пoдъёме на 10 м давление пoнижается примернo на 1 мм рт.ст.).